[[{"header":{"parameterUnit":"m.s-1","parameterCategory":1,"la1":30.2991,"la2":30.254,"lo1":-89.0895,"lo2":-89.0444,"dy":0.0017,"dx":0.0017,"nx":28,"ny":28,"refTime":"2023-08-08T09:00:00:Z","depth":0,"parameterNumber":2,"parameterNumberName":"U-component_of_WINDS"},"data":[0,0,0,0,0,0,0,0,0,0,0,0,0,0,0,0,0,0,0,0,0,0,0,0,0,0,0,0,0,0,0,0,0,0,0,0,0,0,0,0,0,0,0,0,0,0,0,0,0,0,0,0,0,0,0,0,0,0,3.6832,3.6832,0,3.6865,3.6865,3.6865,3.6795,3.6792,3.679,3.6788,3.6822,3.6825,3.6828,0,0,0,0,0,0,0,0,0,0,0,0,0,3.6706,3.6708,3.6832,3.6832,3.6833,3.6865,3.6865,3.6866,3.6795,3.6792,3.6789,3.6787,3.6821,3.6824,3.6828,0,0,0,0,0,0,0,0,0,0,0,0,0,3.6752,3.6709,3.6832,3.6801,3.6799,3.6865,3.6865,3.6866,3.6796,3.6792,3.6789,3.6786,3.6819,3.6824,3.6828,3.6925,0,0,3.6842,3.6844,0,0,0,0,0,0,0,0,3.6749,3.6756,3.6805,3.6803,3.6801,3.6822,3.6833,3.6886,3.6796,3.6797,3.6788,3.6784,3.6825,3.6828,3.6842,3.6927,3.6928,3.6843,3.6845,3.6847,3.6849,0,0,0,0,0,0,0,3.6746,3.6755,3.6845,3.6806,3.6803,3.6785,3.6788,3.6843,3.683,3.6797,3.6791,3.6796,3.6823,3.6838,3.6842,3.6929,3.6842,3.6847,3.6849,3.6851,3.709,3.7094,0,0,0,0,0,0,3.6747,3.6752,3.6844,3.6846,3.6766,3.679,3.6793,3.6819,3.6829,3.6827,3.6799,3.6793,3.6832,3.6837,3.6843,3.6954,3.6847,3.6852,3.6854,3.7086,3.7091,3.7095,0,0,0,0,0,0,3.6744,3.6756,3.6842,3.6798,3.6807,3.6796,3.6825,3.6821,3.6836,3.6831,3.6828,3.6817,3.6829,3.6837,3.6904,3.6954,3.6854,3.6858,3.7082,3.7088,3.7093,3.7178,0,0,0,0,0,0,3.6741,3.6755,3.6793,3.6799,3.681,3.6904,3.6828,3.6824,3.6844,3.6836,3.6847,3.6845,3.6827,3.6898,3.6909,3.6959,3.6861,3.7078,3.7085,3.7091,3.7171,3.7186,3.7199,0,0,0,0,0,3.6737,3.6816,3.6795,3.6806,3.6856,3.6907,3.6913,3.689,3.6849,3.6885,3.6881,3.6845,3.6948,3.6905,3.6917,3.6969,3.7074,3.7083,3.7091,3.7165,3.7183,3.7199,0,0,0,0,0,0,3.6817,3.6817,3.6793,3.6877,3.6892,3.6895,3.694,3.6911,3.6939,3.693,3.6901,3.6904,3.6976,3.698,3.6933,3.7061,3.7004,3.7015,3.7056,3.7073,3.7087,3.7083,3.6865,0,0,0,0,0,3.6844,3.6885,3.6883,3.6957,3.6966,3.6952,3.6973,3.6954,3.6969,3.6975,3.6976,3.6992,3.7027,3.7051,3.7083,3.7172,3.7171,3.7213,3.7227,3.7239,3.7247,3.7291,3.7308,3.7122,3.7121,3.7121,0,0,3.6901,3.6906,3.6934,3.6973,3.6983,3.7025,3.6958,3.7006,3.7036,3.6983,3.7045,3.7047,3.7062,3.7139,3.7173,3.7144,3.7299,3.7249,3.7258,3.7261,3.7301,3.7319,3.7334,3.7127,3.7126,3.7125,0,0,3.7025,3.7034,3.7095,3.7106,3.7121,3.7111,3.7126,3.7132,3.7131,3.7193,3.7152,3.7188,3.7251,3.7262,3.7276,3.7402,3.7369,3.7414,3.7486,3.7528,3.7543,3.7556,3.7598,3.7613,3.7423,3.7424,3.7424,0,3.7093,3.7155,3.713,3.718,3.7197,3.715,3.721,3.7222,3.7247,3.726,3.7227,3.7302,3.7309,3.7387,3.7417,3.7432,3.7445,3.7411,3.7543,3.7556,3.7567,3.7607,3.7623,3.7429,3.7428,3.7428,3.7427,0,3.7237,3.728,3.7328,3.7352,3.7375,3.743,3.7412,3.7438,3.7417,3.741,3.7473,3.748,3.7511,3.7529,3.7509,3.7603,3.7584,3.7548,3.7489,3.7591,3.7627,3.7642,3.7436,3.7434,3.7433,3.7431,0,0,3.7412,3.742,3.7437,3.7446,3.7458,3.7491,3.7543,3.7573,3.7594,3.7614,3.7655,3.7708,3.7674,3.769,3.7671,3.7709,3.7804,3.7668,3.7668,3.769,3.7903,3.7928,3.7946,3.7783,3.7786,3.7788,3.7901,0,3.7531,3.762,3.7598,3.7686,3.7723,3.7678,3.7723,3.7735,3.773,3.7761,3.7755,3.7792,3.7746,3.7754,3.779,3.7785,3.7846,3.7777,3.7819,3.7821,3.7813,3.7966,3.7992,3.8098,3.7915,3.7918,3.792,0,3.7683,3.7706,3.7797,3.78,3.7815,3.7856,3.788,3.7911,3.7923,3.7916,3.7933,3.7906,3.7956,3.7899,3.7965,3.7919,3.7935,3.7935,3.7938,3.7939,3.7874,3.7967,3.8132,3.8147,3.7942,3.7941,3.7939,0,3.7796,3.785,3.7911,3.792,3.7927,3.7956,3.796,3.7968,3.7987,3.8008,3.8019,3.8047,3.8061,3.8083,3.8063,3.8024,3.8132,3.8074,3.8126,3.8126,3.8148,3.8146,3.8315,3.8164,3.8164,3.8164,3.8163,0,3.793,3.7987,3.7961,3.7998,3.8059,3.8033,3.8094,3.8093,3.8101,3.8136,3.81,3.8133,3.8107,3.8138,3.8124,3.8179,3.8187,3.8181,3.8176,3.8183,3.8183,3.8191,3.8182,3.8168,3.8167,3.8166,3.8165,0,3.8067,3.8052,3.8114,3.8114,3.8116,3.816,3.816,3.8194,3.8185,3.823,3.8239,3.8226,3.826,3.8243,3.828,3.827,3.834,3.8327,3.8336,3.8331,3.8383,3.8377,3.8559,3.858,3.842,3.8421,3.8422,0,3.8151,3.8193,3.8198,3.8218,3.8224,3.8258,3.8276,3.8252,3.8272,3.8287,3.8318,3.8349,3.8372,3.8429,3.8423,3.8449,3.8434,3.8496,3.8438,3.8442,3.8431,3.8427,3.843,3.8507,3.8509,3.8511,3.8512,0,3.8302,3.8292,3.832,3.8344,3.8366,3.8385,3.84,3.8419,3.8395,3.8419,3.8453,3.8471,3.8507,3.8537,3.856,3.8563,3.8533,3.8531,3.8543,3.8549,3.855,3.8547,3.8364,3.8526,3.8525,3.8523,3.8523,3.8522,3.8413,3.8447,3.8454,3.8485,3.8493,3.8508,3.8538,3.8533,3.8561,3.8587,3.8572,3.8611,3.8619,3.8647,3.8654,3.8684,3.8659,3.8678,3.8683,3.8687,3.8692,3.8549,3.8688,3.8688,3.8687,3.8687,3.8687,0,3.8558,3.8561,3.8589,3.861,3.8634,3.8604,3.8619,3.864,3.8675,3.8686,3.8709,3.8746,3.8775,3.8771,3.8796,3.8821,3.8807,3.8828,3.8824,3.8825,3.8715,3.8699,3.8838,3.8838,3.8838,3.8838,3.8838,3.8838,3.8637,3.8691,3.8682,3.8739,3.8741,3.8778,3.8789,3.8801,3.8809,3.8852,3.8876,3.8873,3.8876,3.8902,3.8926,3.8924,3.8934,3.8959,3.8951,3.8848,3.8833,3.8818,3.8804,3.8962,3.8962,3.9058,3.9059,3.906]},{"header":{"parameterUnit":"m.s-1","parameterCategory":1,"la1":30.2991,"la2":30.254,"lo1":-89.0895,"lo2":-89.0444,"dy":0.0017,"dx":0.0017,"nx":28,"ny":28,"refTime":"2023-08-08T09:00:00:Z","depth":0,"parameterNumber":3,"parameterNumberName":"V-component_of_WINDS"},"data":[0,0,0,0,0,0,0,0,0,0,0,0,0,0,0,0,0,0,0,0,0,0,0,0,0,0,0,0,0,0,0,0,0,0,0,0,0,0,0,0,0,0,0,0,0,0,0,0,0,0,0,0,0,0,0,0,0,0,6.7623,6.7624,0,6.7694,6.7695,6.7696,6.7651,6.7649,6.7647,6.7645,6.7711,6.7715,6.7718,0,0,0,0,0,0,0,0,0,0,0,0,0,6.7443,6.7446,6.7623,6.7624,6.7625,6.7694,6.7695,6.7696,6.7651,6.7649,6.7646,6.7644,6.771,6.7714,6.7719,0,0,0,0,0,0,0,0,0,0,0,0,0,6.7518,6.7447,6.7623,6.7612,6.7611,6.7694,6.7695,6.7696,6.7652,6.7649,6.7646,6.7643,6.7708,6.7714,6.7719,6.7815,0,0,6.7736,6.7738,0,0,0,0,0,0,0,0,6.7514,6.7524,6.7612,6.7612,6.7612,6.7661,6.7655,6.7736,6.7653,6.7636,6.7645,6.7641,6.7696,6.7703,6.7722,6.7818,6.7821,6.7736,6.774,6.7742,6.7744,0,0,0,0,0,0,0,6.7508,6.7521,6.7651,6.7614,6.7614,6.76,6.7607,6.767,6.7683,6.7637,6.7634,6.7644,6.7696,6.7717,6.7724,6.7822,6.7736,6.7741,6.7745,6.7747,6.7997,6.8,0,0,0,0,0,0,6.7505,6.7517,6.7649,6.7653,6.7555,6.7606,6.7614,6.7648,6.7682,6.7684,6.7646,6.7641,6.7709,6.7717,6.7726,6.7838,6.7742,6.7747,6.775,6.7993,6.7997,6.8001,0,0,0,0,0,0,6.7501,6.7517,6.7646,6.7584,6.76,6.7612,6.7651,6.7651,6.7673,6.7689,6.769,6.7667,6.7707,6.7718,6.7793,6.784,6.775,6.7755,6.7989,6.7995,6.7999,6.8065,0,0,0,0,0,0,6.7497,6.7516,6.7555,6.7586,6.7603,6.7714,6.7654,6.7655,6.7683,6.7677,6.7708,6.771,6.7706,6.7785,6.7798,6.7846,6.7759,6.7985,6.7992,6.7998,6.8058,6.8071,6.8083,0,0,0,0,0,6.749,6.757,6.7557,6.7573,6.7652,6.7717,6.7727,6.7722,6.7687,6.7724,6.7734,6.7709,6.7833,6.7793,6.7808,6.7857,6.7982,6.799,6.7997,6.8053,6.8069,6.8082,0,0,0,0,0,0,6.7542,6.7574,6.756,6.7653,6.7683,6.771,6.7757,6.774,6.7779,6.7772,6.7762,6.7769,6.7847,6.786,6.7815,6.7951,6.7902,6.7912,6.7939,6.7954,6.7966,6.796,6.7764,0,0,0,0,0,6.7565,6.7618,6.7641,6.772,6.7737,6.7744,6.7773,6.7766,6.7796,6.7808,6.7824,6.7852,6.7897,6.7927,6.7969,6.8061,6.8065,6.8102,6.8114,6.8124,6.8132,6.8179,6.8195,6.8025,6.8025,6.8025,0,0,6.7611,6.7635,6.7669,6.7732,6.7754,6.7806,6.7755,6.7813,6.785,6.7816,6.7888,6.79,6.7931,6.8014,6.8051,6.8027,6.818,6.8133,6.8141,6.8144,6.8188,6.8204,6.8218,6.8031,6.803,6.8029,0,0,6.7722,6.7747,6.7814,6.7838,6.7874,6.7878,6.7895,6.7924,6.7931,6.8004,6.7978,6.8022,6.81,6.8122,6.8144,6.8262,6.8239,6.8276,6.8338,6.8383,6.8396,6.8408,6.8447,6.8462,6.8285,6.8285,6.8285,0,6.7775,6.7855,6.7851,6.791,6.7937,6.791,6.7976,6.7999,6.8046,6.8064,6.8037,6.8134,6.8153,6.8239,6.8268,6.8287,6.8303,6.8271,6.8395,6.8407,6.8418,6.8455,6.847,6.8289,6.8289,6.8288,6.8288,0,6.7916,6.7971,6.8021,6.8068,6.8101,6.8164,6.8166,6.82,6.819,6.8197,6.8269,6.8291,6.8336,6.8356,6.8348,6.8441,6.8424,6.8397,6.8347,6.8438,6.8473,6.8487,6.8295,6.8294,6.8292,6.8291,0,0,6.8061,6.8105,6.8123,6.8143,6.818,6.8221,6.8281,6.8327,6.8355,6.8388,6.8435,6.8502,6.8476,6.8501,6.8494,6.8534,6.8623,6.8501,6.8501,6.852,6.8723,6.8742,6.8759,6.8609,6.8611,6.8614,6.872,0,6.8171,6.8279,6.8276,6.8374,6.8423,6.8398,6.845,6.8477,6.8484,6.8525,6.8532,6.8579,6.8543,6.8557,6.8596,6.8604,6.8663,6.8596,6.865,6.8652,6.8641,6.8778,6.8798,6.8898,6.8734,6.8736,6.8738,0,6.8315,6.8354,6.8458,6.8485,6.8506,6.8553,6.8593,6.8634,6.8663,6.8665,6.8692,6.8678,6.8736,6.8687,6.8764,6.8719,6.8741,6.8748,6.8752,6.8754,6.8699,6.8781,6.8929,6.8943,6.876,6.8758,6.8756,0,6.8407,6.8485,6.8557,6.8575,6.861,6.8643,6.8658,6.8684,6.8712,6.8746,6.8763,6.8804,6.8826,6.8857,6.8853,6.8818,6.8931,6.8882,6.8932,6.8932,6.8955,6.8953,6.9106,6.8974,6.8973,6.8973,6.8973,0,6.8529,6.8593,6.8598,6.8642,6.8711,6.8707,6.8775,6.8787,6.881,6.8853,6.8834,6.8874,6.8869,6.8909,6.8907,6.897,6.898,6.8981,6.8979,6.8982,6.8981,6.8994,6.8986,6.8977,6.8976,6.8975,6.8975,0,6.8643,6.8649,6.8725,6.8752,6.876,6.881,6.8831,6.8871,6.8877,6.8932,6.8945,6.8953,6.8999,6.8999,6.9052,6.905,6.9126,6.9118,6.9117,6.9114,6.9163,6.9157,6.9327,6.9348,6.9205,6.9206,6.9207,0,6.8719,6.8768,6.88,6.8829,6.8847,6.8893,6.8921,6.8918,6.8947,6.8982,6.9017,6.9062,6.9097,6.9171,6.918,6.9219,6.921,6.9267,6.9216,6.9216,6.9207,6.9204,6.9207,6.9276,6.9278,6.9279,6.928,0,6.8853,6.8854,6.8896,6.8939,6.8973,6.9006,6.9036,6.906,6.906,6.9093,6.9141,6.9168,6.9222,6.9265,6.9303,6.9316,6.9297,6.9297,6.931,6.9311,6.9308,6.9307,6.9141,6.9292,6.9291,6.929,6.9289,6.9289,6.8949,6.899,6.9019,6.9065,6.9088,6.9117,6.9155,6.9166,6.9206,6.9251,6.9246,6.9298,6.9323,6.9372,6.9389,6.9427,6.9407,6.9427,6.9431,6.9436,6.944,6.9304,6.9435,6.9434,6.9434,6.9434,6.9433,0,6.9079,6.9097,6.914,6.9184,6.9219,6.9201,6.9234,6.9264,6.9311,6.9337,6.9372,6.9425,6.9467,6.948,6.9519,6.9548,6.954,6.9558,6.9554,6.9557,6.9457,6.944,6.9563,6.9563,6.9563,6.9563,6.9563,6.9563,6.9151,6.9219,6.9223,6.93,6.9316,6.9369,6.9388,6.9414,6.9434,6.9495,6.953,6.9539,6.9559,6.9599,6.9636,6.9638,6.9652,6.9673,6.9672,6.9578,6.9564,6.9552,6.9536,6.9677,6.9677,6.9768,6.9769,6.977]}]]